Das Wetter in  D-61279 Heinzenberg / Taunus





Wetter Minimum- & Maximum-Werte im August 2011

Standort: Heinzenberg / Taunus - Höhe 297 m         8° 24' 1" Ost 50° 21' 51" Nord
(   3-stündige Aktualisierung    letzte Aktualisierung um 20:46 am 31.08.2011  )


Messgrösse

Minimum

Maximum

Durchschnitt

Temperatur West /
Luftfeuchte West
Anklicken für Monats-Diagramm

5,6 °C

07:14
30.08.2011

32 %

17:26
20.08.2011

32,4 °C

16:49
23.08.2011

99 %

02:23
06.08.2011

Temp

17,9 °C

Feuchte

80 %

Temperatur Ost /
Luftfeuchte Ost
Anklicken für Monats-Diagramm

6,3 °C

07:14
30.08.2011

--

--
--

32,2 °C

16:54
23.08.2011

--

--
--

18,2 °C

--

Luftdruck Anklicken für Monats-Diagramm

1002,5 hPa

22:23
06.08.2011

1024,1 hPa

08:30
20.08.2011

1014,2 hPa

Taupunkt

4,7 °C

07:14
30.08.2011

21,9 °C

16:42
21.08.2011

13,9 °C

Windchill
( gefühlte Temperatur )

3,3 °C

08:58
08.08.2011

32,3 °C

16:49
23.08.2011

16,7 °C

Windgeschwindigkeit /
Windrichtung
Anklicken für Monats-Diagramm

---

74,6 km/h / SO

16:19
24.08.2011

7,7 km/h
W-SW

Helligkeit /
Sonnenschein
Anklicken für Monats-Diagramm
Anklicken für Monats-Diagramm

Sonnenschein:

154:16 Stunden

Max: 12:40 Std am
01.08.2011

110 klux

12:25
05.08.2011

32 klux

Solarstrahlung Anklicken für Monats-Diagramm

---

752 W/m²

12:25
05.08.2011

231 W/m²

Regenmenge
    August 2011
Anklicken für Monats-Diagramm

Insgesamt 96,1 l/m²

in 48:54 Stunden
an 15 Tagen

13,8 l/m²

20:36
26.08.2011

Gesamtmenge

96,1 l/m²

Regen-Tage
    August 2011
Anklicken für Monats-Diagramm

>   0 mm/Tag

>   2 mm/Tag

>   5 mm/Tag

> 10 mm/Tag

> 20 mm/Tag

15 Tage     
12 Tage     
8 Tage     
5 Tage     
0 Tage     

Eisige Tage August 2011 / 2010

Tmin ≤ -10°C     

0 Tage

/

0 Tage

Eistage August 2011 / 2010

Tmax <     0°C     

0 Tage

/

0 Tage

Frosttage August 2011 / 2010

Tmin ≤     0°C     

0 Tage

/

0 Tage

Kalte Tage August 2011 / 2010

Tmax <   10°C     

0 Tage

/

0 Tage

Warme Tage August 2011 / 2010

Tmax ≥   20°C     

22 Tage

/

23 Tage

Sommertage August 2011 / 2010

Tmax ≥   25°C     

13 Tage

/

7 Tage

Heisse Tage August 2011 / 2010

Tmax ≥   30°C     

4 Tage

/

  1 Tag


Monatsdiagramm August 2011

Die Kurven zeigen den Durchschnittswert des jeweiligen Tages an


Wetter-Monatsübersicht August 2011
Datum
  Temperatur
   Luftdruck
   Wind
  Regen
   Luftfeuchte
   Helligkeit

Sonnen-
schein

Ø
Temp.

Min.
Temp.

Max.
Temp.

Ø
Luftdruck

Min.
Luftdruck

Max.
Luftdruck

Ø-Geschw.
Haupt-Richtg.

Max.
Wind

Menge /
Dauer

Ø
Feuchte

Min.
Feuchte

Max.
Feuchte

Ø
Helligkeit

Max.
Helligkeit

1.
August
16,2 °C6,7 °C
06:02
25,4 °C
17:22
1016,8 hPa1015,0 hPa
17:22
1018,3 hPa
06:02
4,5 km/h
SO
30,0 km/h
14:37  
---
73 %48 %
13:37
96 %
07:42
46,1 klux92,6 klux
12:32
12:40 Std 
2.
August
19,8 °C11,0 °C
05:58
29,1 °C
17:48
1016,7 hPa1014,6 hPa
17:48
1018,5 hPa
08:38
7,8 km/h
SO
35,6 km/h
12:43  
---
69 %38 %
17:18
96 %
08:03
46,0 klux92,9 klux
14:03
12:10 Std 
3.
August
18,4 °C12,7 °C
06:23
24,4 °C
17:53
1015,2 hPa1013,1 hPa
17:53
1016,5 hPa
06:23
7,9 km/h
SO
30,9 km/h
18:23  
2,4 l/m²
1:30 Stunden
83 %64 %
17:58
94 %
07:28
17,5 klux76,7 klux
12:38
24 Min 
4.
August
20,9 °C16,3 °C
06:44
28,2 °C
17:54
1014,9 hPa1012,7 hPa
17:54
1017,0 hPa
09:09
8,4 km/h
W-SW
29,8 km/h
14:44  
8,4 l/m²
2:50 Stunden
76 %41 %
17:54
98 %
04:14
39,5 klux90,9 klux
14:04
8:05 Std 
5.
August
19,3 °C17,0 °C
05:35
24,1 °C
14:20
1013,2 hPa1011,5 hPa
20:13
1014,7 hPa
00:25
6,1 km/h
W-SW
29,5 km/h
15:05  
13,1 l/m²
4:15 Stunden
89 %69 %
14:25
98 %
23:28
24,3 klux110,0 klux
12:25
2:45 Std 
6.
August
18,8 °C15,0 °C
05:13
25,4 °C
14:58
1007,0 hPa1002,5 hPa
22:23
1011,9 hPa
02:08
6,4 km/h
SO
59,3 km/h
16:48  
13,1 l/m²
3:30 Stunden
92 %65 %
16:03
99 %
02:23
26 klux109 klux
13:28
2:55 Std 
7.
August
16,7 °C13,2 °C
08:38
22,3 °C
17:33
1006,5 hPa1002,5 hPa
00:03
1008,8 hPa
13:13
14,3 km/h
W
34,8 km/h
17:13  
2,3 l/m²
3:30 Stunden
79 %45 %
17:43
99 %
00:03
32 klux109 klux
14:18
4:50 Std 
8.
August
14,4 °C11,9 °C
07:43
18,8 °C
18:33
1006,5 hPa1005,0 hPa
09:38
1009,8 hPa
18:08
18,3 km/h
W-SW
45,3 km/h
14:38  
5,2 l/m²
5:16 Stunden
82 %65 %
14:28
95 %
08:18
25 klux108 klux
13:38
4:45 Std 
13.
August
17,4 °C15,4 °C
08:21
22,8 °C
14:56
1010,5 hPa1009,2 hPa
15:51
1012,1 hPa
08:26
4,9 km/h
W-SW
24,1 km/h
12:21  
11,2 l/m²
2:20 Stunden
89 %65 %
14:56
97 %
08:21
19 klux105 klux
13:56
1:05 Std 
14.
August
18,0 °C14,2 °C
23:51
21,9 °C
16:06
1008,0 hPa1005,2 hPa
12:26
1011,2 hPa
23:51
10,1 km/h
W-SW
46,4 km/h
14:21  
0,3 l/m²
1:05 Stunden
90 %73 %
16:11
97 %
07:21
17 klux92 klux
16:06
20 Min 
15.
August
17,4 °C13,3 °C
06:16
24,6 °C
17:31
1014,5 hPa1011,2 hPa
00:01
1019,5 hPa
23:51
5,2 km/h
W-NW
25,8 km/h
16:06  
---
77 %40 %
17:21
99 %
08:31
37,3 klux101,0 klux
12:11
6:50 Std 
16.
August
16,8 °C12,7 °C
06:46
22,8 °C
19:11
1018,8 hPa1016,6 hPa
17:11
1020,6 hPa
00:56
3,7 km/h
W
23,3 km/h
17:01  
---
79 %55 %
18:51
94 %
06:51
24 klux107 klux
14:56
1:25 Std 
17.
August
18,9 °C12,2 °C
06:55
26,8 °C
16:15
1016,9 hPa1014,1 hPa
18:30
1019,4 hPa
02:05
3,0 km/h
SO
22,0 km/h
13:45  
---
5 Minuten
74 %43 %
12:55
95 %
07:20
39 klux97 klux
14:50
7:05 Std 
18.
August
21,7 °C13,3 °C
07:00
30,9 °C
17:30
1013,3 hPa1009,8 hPa
20:25
1016,0 hPa
01:30
5,4 km/h
SO
27,6 km/h
19:10  
---
72 %44 %
17:30
94 %
07:55
41,0 klux98,6 klux
13:25
10:35 Std 
19.
August
19,3 °C12,6 °C
23:50
23,8 °C
00:05
1015,8 hPa1011,1 hPa
00:05
1021,7 hPa
23:50
15,4 km/h
W
41,6 km/h
09:55  
2,3 l/m²
1:45 Stunden
77 %56 %
18:25
95 %
12:15
31,9 klux98,1 klux
13:15
5:45 Std 
20.
August
17,7 °C9,2 °C
06:35
28,6 °C
17:46
1021,6 hPa1018,8 hPa
17:46
1024,1 hPa
08:30
4,0 km/h
W-SW
18,1 km/h
15:41  
---
69 %32 %
17:26
96 %
08:00
43,4 klux78,6 klux
13:10
11:56 Std 
21.
August
18,5 °C11,1 °C
04:51
28,7 °C
17:12
1017,6 hPa1014,8 hPa
18:52
1020,5 hPa
00:16
4,4 km/h
SO
25,4 km/h
17:27  
4,1 l/m²
1:55 Stunden
83 %56 %
18:02
97 %
13:01
23,6 klux89,4 klux
14:21
4:51 Std 
22.
August
22,1 °C17,6 °C
07:47
30,6 °C
18:02
1017,2 hPa1015,5 hPa
18:02
1018,6 hPa
09:57
2,0 km/h
W-NW
12,3 km/h
15:17  
---
78 %40 %
17:22
97 %
08:12
29,8 klux85,4 klux
12:52
4:40 Std 
23.
August
23,4 °C16,1 °C
07:14
32,4 °C
16:49
1013,4 hPa1010,1 hPa
16:49
1016,9 hPa
01:49
7,3 km/h
W-SW
30,6 km/h
14:34  
---
15 Minuten
71 %36 %
17:04
93 %
08:24
37,2 klux100,0 klux
14:09
7:40 Std 
24.
August
20,3 °C16,2 °C
23:35
28,2 °C
13:44
1015,0 hPa1012,8 hPa
14:44
1017,1 hPa
23:30
4,7 km/h
SO
74,6 km/h
16:19  
13,8 l/m²
2:27 Stunden
87 %55 %
13:09
99 %
23:10
26 klux84 klux
14:29
4:24 Std 
25.
August
18,9 °C13,1 °C
06:35
26,8 °C
17:10
1014,6 hPa1011,8 hPa
17:10
1017,5 hPa
05:25
3,3 km/h
SO
20,4 km/h
15:00  
---
88 %60 %
16:45
99 %
00:00
32,9 klux100,0 klux
13:55
4:05 Std 
26.
August
21,7 °C14,4 °C
23:37
30,2 °C
16:26
1007,1 hPa1003,1 hPa
16:26
1012,7 hPa
00:21
13,0 km/h
W-SW
43,2 km/h
17:11  
13,8 l/m²
2:55 Stunden
79 %50 %
17:11
96 %
21:41
40 klux86 klux
12:51
8:55 Std 
27.
August
13,8 °C11,5 °C
23:58
17,4 °C
16:52
1013,9 hPa1009,1 hPa
00:22
1018,7 hPa
23:58
16,2 km/h
W-SW
31,8 km/h
20:27  
6,1 l/m²
11:16 Stunden
92 %79 %
16:52
97 %
00:52
23,0 klux82,7 klux
11:47
2:15 Std 
28.
August
13,8 °C10,9 °C
23:59
18,8 °C
18:48
1018,7 hPa1016,8 hPa
18:48
1019,8 hPa
06:48
11,4 km/h
W-SW
42,3 km/h
11:43  
---
82 %63 %
11:53
94 %
00:13
25,6 klux87,4 klux
11:58
4:15 Std 
29.
August
13,3 °C9,5 °C
03:49
18,6 °C
14:49
1016,7 hPa1014,8 hPa
14:54
1018,0 hPa
03:09
11,6 km/h
W
41,9 km/h
14:09  
---
75 %52 %
14:49
92 %
05:04
35,1 klux106,0 klux
14:14
5:40 Std 
30.
August
12,1 °C5,6 °C
07:14
18,9 °C
16:19
1017,0 hPa1014,9 hPa
16:44
1018,5 hPa
07:14
5,1 km/h
N-NW
24,3 km/h
11:24  
---
76 %48 %
15:04
96 %
08:24
36 klux97 klux
13:19
6:26 Std 
31.
August
14,4 °C10,2 °C
07:15
22,0 °C
17:15
1015,0 hPa1013,4 hPa
17:15
1016,7 hPa
00:35
2,2 km/h
W-NW
16,4 km/h
14:30  
---
74 %43 %
17:25
93 %
06:35
37,2 klux91,2 klux
12:35
7:30 Std 



August
2011

Temperatur

  

Luftdruck

  

Wind

  

Regen

  

Luftfeuchte

  

Helligkeit

Sonnen-
schein

Ø

Min

Max

Ø

Min

Max

Ø

Max

Max

Ø

Min

Max

Ø

Max

Max

17,9 °C

5,6 °C

07:14 Uhr
30.08.2011

32,4 °C

16:49 Uhr
23.08.2011

1014,2 hPa

1002,5 hPa

22:23 Uhr
06.08.2011

1024,1 hPa

08:30 Uhr
20.08.2011

7,7 km/h

W-SW

74,6 km/h

16:19 Uhr
24.08.2011

13,8 l/m²

2:55 Stunden
26.08.2011

80 %

32 %

17:26 Uhr
20.08.2011

99 %

02:23 Uhr
06.08.2011

31,7 klux

110,0 klux

12:25 Uhr
05.08.2011

12:40 Std

am
01.08.2011

Gesamt

Gesamt

96,1 l/m²

15 Tage
48:54 h

154:16 Std


Wetter-Diagramme August 2011     Heinzenberg / Taunus   
TemperaturLuftfeuchte
SolarstrahlungLuftdruck
HelligkeitSonnenschein
RegenmengeRegendauer
Wind-GeschwindigkeitWind-Richtung